Location: Ay?beleni
(36.6500°N, 30.3000°E)
Time: 03:52:00
(UTC+00:00)

Cosmos 1300 - Pass Details

Date: 16 October 2021
Orbit: 509 x 511 km, 82.5° (Epoch: 08 December)

Event Time Altitude Azimuth Distance (km) Brightness Sun altitude
Rises 16:52:44 0° 180° (S) 2,607 6.3 -19.1°
Reaches altitude 10° 16:54:51 10° 178° (S) 1,726 5.3 -19.6°
Maximum altitude 16:58:36 68° 96° (E) 553 2.5 -20.3°
Enters shadow 16:59:08 58° 46° (NE) 600 2.7 -20.4°
Exits shadow 17:04:01 - 11° (N) 2,417 6.0 -21.4°
Sets 17:04:32 0° 10° (N) 2,631 6.2 -21.5°
